GW1104 Weather Reports


time (UTC)temp
C
wind
direction
speed
KPH
gust
KPH
rain 1hr
cm
rain 24hr
cm
rain mn
cm
humidity
%
barometer
mb
20260506104328 16 160 8.0 16.1 0.00 0.03 0.00 82 1009.6
20260506103314 16 153 4.8 9.7 0.00 0.03 0.00 82 1009.7
20260506102348 16 190 4.8 17.7 0.00 0.03 0.00 82 1009.8
20260506101315 16 177 9.7 14.5 0.00 0.03 0.00 82 1009.6
20260506100328 16 190 4.8 12.9 0.00 0.03 0.00 82 1009.7
20260506095312 16 151 4.8 17.7 0.00 0.03 0.00 81 1009.6
20260506094327 16 178 4.8 17.7 0.00 0.03 0.00 81 1009.5
20260506093315 17 186 4.8 12.9 0.00 0.03 0.00 81 1009.5
20260506092329 17 161 4.8 11.3 0.00 0.03 0.00 80 1009.6
20260506091335 17 168 8.0 12.9 0.00 0.03 0.00 80 1009.5
20260506090341 17 197 6.4 14.5 0.00 0.03 0.00 80 1009.5
20260506085324 17 157 4.8 12.9 0.00 0.03 0.00 79 1009.7
20260506084314 17 166 4.8 11.3 0.00 0.03 0.00 78 1009.7
20260506083344 17 132 6.4 11.3 0.00 0.03 0.00 76 1009.7
20260506082315 17 166 4.8 8.0 0.00 0.03 0.00 75 1009.8
20260506081318 17 136 3.2 8.0 0.00 0.03 0.00 74 1009.8
20260506080331 17 142 4.8 9.7 0.00 0.03 0.00 73 1009.8
20260506073326 18 188 4.8 17.7 0.00 0.03 0.00 70 1010.0
20260506072330 18 189 6.4 14.5 0.00 0.03 0.00 69 1010.0
20260506071315 18 182 6.4 14.5 0.00 0.03 0.00 68 1010.0
20260506070348 18 175 6.4 12.9 0.00 0.03 0.00 67 1009.9
20260506062314 19 161 4.8 12.9 0.00 0.03 0.00 65 1010.3
20260506061328 19 193 4.8 14.5 0.00 0.03 0.00 64 1010.3
20260506060317 19 193 6.4 24.1 0.00 0.03 0.00 64 1010.3
20260506051345 19 218 4.8 11.3 0.00 0.03 0.00 65 1010.7
20260506050331 19 143 6.4 16.1 0.00 0.03 0.00 64 1010.8
20260506044324 19 125 4.8 14.5 0.00 0.03 0.00 64 1010.9
20260506043311 19 197 9.7 22.5 0.00 0.03 0.00 64 1011.0
20260506042326 19 148 4.8 16.1 0.00 0.03 0.00 64 1010.9
20260506041331 19 207 6.4 16.1 0.00 0.03 0.00 64 1010.8
20260506040317 19 138 3.2 9.7 0.00 0.03 0.03 64 1010.9
20260506035316 19 191 6.4 14.5 0.00 0.03 0.03 63 1010.9
20260506034340 20 186 4.8 11.3 0.00 0.03 0.03 62 1010.8
20260506033324 20 180 6.4 16.1 0.00 0.03 0.03 61 1010.7
20260506032323 20 157 6.4 16.1 0.00 0.03 0.03 60 1010.7
20260506031338 20 147 6.4 16.1 0.00 0.03 0.03 58 1010.7
20260506030325 20 166 6.4 19.3 0.00 0.03 0.03 56 1010.7
20260506025329 20 169 4.8 9.7 0.00 0.03 0.03 55 1010.5
20260506024343 21 170 4.8 17.7 0.00 0.03 0.03 54 1010.4
20260506023337 21 188 6.4 11.3 0.00 0.03 0.03 53 1010.6
20260506022326 21 214 6.4 12.9 0.00 0.03 0.03 52 1010.5
20260506021312 21 172 6.4 9.7 0.00 0.03 0.03 52 1010.6
20260506020345 21 159 4.8 14.5 0.00 0.03 0.03 51 1010.6
20260506015327 21 158 6.4 14.5 0.00 0.03 0.03 51 1010.5
20260506014314 21 129 8.0 12.9 0.00 0.03 0.03 50 1010.5
20260506013327 22 149 6.4 9.7 0.00 0.03 0.03 50 1010.4
20260506012314 22 148 4.8 11.3 0.00 0.03 0.03 49 1010.2
20260506011318 22 180 8.0 12.9 0.00 0.03 0.03 47 1010.1
20260506010352 22 191 6.4 12.9 0.00 0.03 0.03 46 1009.9
20260506005316 22 148 6.4 9.7 0.00 0.03 0.03 45 1010.0
20260506004330 22 151 3.2 12.9 0.00 0.03 0.03 44 1009.9
20260506003318 23 180 4.8 16.1 0.00 0.03 0.03 43 1009.9
20260506002325 23 118 4.8 14.5 0.00 0.03 0.03 43 1009.9
20260506001332 23 182 4.8 9.7 0.00 0.03 0.03 42 1009.8
20260506000320 23 196 3.2 16.1 0.00 0.03 0.03 42 1009.6
20260505235352 23 186 3.2 9.7 0.00 0.03 0.03 42 1009.6
20260505234346 23 185 4.8 8.0 0.00 0.03 0.03 40 1009.5
20260505233312 23 179 3.2 8.0 0.00 0.03 0.03 40 1009.4
20260505232318 23 166 8.0 16.1 0.00 0.03 0.03 40 1009.4
20260505231325 23 202 4.8 14.5 0.00 0.03 0.03 40 1009.3
20260505230314 23 230 6.4 14.5 0.00 0.03 0.03 39 1009.1
20260505225337 24 211 4.8 9.7 0.00 0.03 0.03 38 1009.2
20260505224324 24 236 8.0 17.7 0.00 0.03 0.03 38 1009.1
20260505223314 24 201 6.4 9.7 0.00 0.03 0.03 37 1009.0
20260505222329 24 191 8.0 29.0 0.00 0.03 0.03 37 1008.9
20260505221336 25 219 4.8 17.7 0.00 0.03 0.03 37 1008.8
20260505220320 25 151 11.3 25.7 0.00 0.03 0.03 36 1008.9
20260505215325 25 172 9.7 17.7 0.00 0.03 0.03 36 1008.7
20260505214339 25 206 6.4 17.7 0.00 0.03 0.03 36 1008.6
20260505213323 25 217 11.3 19.3 0.00 0.03 0.03 36 1008.4
20260505212330 25 180 6.4 17.7 0.00 0.03 0.03 35 1008.5
20260505211335 25 204 11.3 25.7 0.00 0.03 0.03 34 1008.4
20260505210329 26 161 8.0 16.1 0.00 0.03 0.03 34 1008.2
20260505205353 26 189 9.7 17.7 0.00 0.03 0.03 34 1008.0
20260505204338 26 220 8.0 25.7 0.00 0.03 0.03 34 1008.1
20260505203327 26 182 8.0 19.3 0.00 0.03 0.03 35 1008.1
20260505202314 26 219 8.0 19.3 0.00 0.03 0.03 33 1008.1
20260505201319 26 236 11.3 24.1 0.00 0.03 0.03 33 1008.5
20260505200325 26 211 8.0 35.4 0.00 0.03 0.03 33 1008.3
20260505195328 26 263 6.4 16.1 0.00 0.03 0.03 36 1008.5
20260505194313 26 170 9.7 20.9 0.00 0.03 0.03 37 1008.4
20260505193318 26 213 8.0 19.3 0.00 0.03 0.03 35 1008.6
20260505192331 26 245 9.7 29.0 0.00 0.03 0.03 35 1008.7
20260505191338 26 211 8.0 14.5 0.00 0.03 0.03 36 1008.7
20260505190324 26 166 3.2 17.7 0.00 0.03 0.03 37 1008.8
20260505185354 26 107 6.4 16.1 0.00 0.03 0.03 39 1008.8
20260505184319 26 174 9.7 17.7 0.00 0.03 0.03 40 1009.1
20260505183331 26 163 9.7 16.1 0.00 0.03 0.03 40 1009.1
20260505182334 26 246 6.4 17.7 0.00 0.03 0.03 37 1009.4
20260505181328 26 225 9.7 16.1 0.00 0.03 0.03 37 1009.7
20260505180312 26 205 8.0 16.1 0.00 0.03 0.03 40 1009.5
20260505175315 26 221 9.7 20.9 0.00 0.03 0.03 39 1009.7
20260505174327 25 298 8.0 20.9 0.00 0.03 0.03 41 1009.7
20260505173358 25 178 6.4 20.9 0.00 0.03 0.03 41 1009.8
20260505172323 25 232 8.0 14.5 0.00 0.03 0.03 43 1009.7
20260505171328 25 211 8.0 17.7 0.00 0.03 0.03 45 1009.8
20260505170312 24 197 4.8 14.5 0.00 0.03 0.03 46 1010.1
20260505165334 24 286 8.0 16.1 0.00 0.03 0.03 45 1010.3
20260505164316 24 211 9.7 17.7 0.00 0.03 0.03 45 1010.4
20260505163346 24 267 8.0 14.5 0.00 0.03 0.03 47 1010.6
20260505162331 24 170 9.7 14.5 0.00 0.03 0.03 46 1010.7
20260505161346 24 205 3.2 12.9 0.00 0.03 0.03 47 1010.5
20260505160311 23 215 4.8 17.7 0.00 0.03 0.03 49 1010.9
20260505153333 23 224 8.0 14.5 0.00 0.03 0.03 50 1011.2
20260505152317 22 238 4.8 11.3 0.00 0.03 0.03 50 1011.2
20260505151319 22 165 6.4 14.5 0.00 0.03 0.03 52 1011.1
20260505150332 22 198 4.8 11.3 0.00 0.03 0.03 54 1011.3
20260505140331 21 226 4.8 12.9 0.00 0.03 0.03 56 1011.7
20260505124322 19 227 3.2 8.0 0.00 0.03 0.03 63 1011.1
20260505123317 18 209 3.2 14.5 0.00 0.03 0.03 65 1011.0
20260505122323 18 180 3.2 6.4 0.00 0.03 0.03 67 1011.0
20260505121328 17 156 3.2 9.7 0.00 0.03 0.03 70 1010.9
20260505120332 16 151 4.8 12.9 0.00 0.03 0.03 77 1011.0
20260505115315 15 141 3.2 9.7 0.00 0.03 0.03 84 1011.0
20260505114330 13 150 4.8 8.0 0.00 0.03 0.03 90 1011.1
20260505113335 12 123 3.2 4.8 0.00 0.03 0.03 90 1011.1
20260505112318 12 96 1.6 3.2 0.03 0.03 0.03 88 1011.2
20260505111331 12 60 0.0 1.6 0.03 0.03 0.03 87 1010.8
20260505110318 13 60 0.0 3.2 0.03 0.03 0.03 86 1010.9